H1 CPF 2 NER 2025 12 8 9 342 01 glonass146 H2 2216101 9146 54377 2025 12 8 0 0 0 2025 12 11 23 45 0 900 1 1 0 0 0 1 H9 10 0 61017 0.00000 0 10954831.411 -22357221.168 5465379.691 10 0 61017 900.00000 0 11067594.451 -22845689.704 2294414.157 10 0 61017 1800.00000 0 10970728.340 -22988074.856 -921226.060 10 0 61017 2700.00000 0 10712928.566 -22757831.762 -4118927.522 10 0 61017 3600.00000 0 10348021.273 -22140841.984 -7236423.372 10 0 61017 4500.00000 0 9932463.438 -21136137.124 -10213016.600 10 0 61017 5400.00000 0 9522742.414 -19756084.070 -12990771.541 10 0 61017 6300.00000 0 9172786.362 -18026023.559 -15515649.346 10 0 61017 7200.00000 0 8931496.513 -15983377.081 -17738564.420 10 0 61017 8100.00000 0 8840506.666 -13676259.764 -19616340.801 10 0 61017 9000.00000 0 8932265.280 -11161657.667 -21112549.796 10 0 61017 9900.00000 0 9228521.506 -8503246.158 -22198212.850 10 0 61017 10800.00000 0 9739279.001 -5768940.808 -22852356.621 10 0 61017 11700.00000 0 10462261.358 -3028283.055 -23062410.355 10 0 61017 12600.00000 0 11382911.215 -349769.371 -22824438.807 10 0 61017 13500.00000 0 12474922.614 2201765.465 -22143207.225 10 0 61017 14400.00000 0 13701283.792 4567603.135 -21032078.049 10 0 61017 15300.00000 0 15015786.282 6697333.767 -19512742.122 10 0 61017 16200.00000 0 16364936.816 8550695.628 -17614790.166 10 0 61017 17100.00000 0 17690191.834 10098987.814 -15375133.182 10 0 61017 18000.00000 0 18930421.025 11325999.051 -12837283.187 10 0 61017 18900.00000 0 20024496.840 12228415.894 -10050508.157 10 0 61017 19800.00000 0 20913901.752 12815695.218 -7068877.418 10 0 61017 20700.00000 0 21545244.227 13109408.086 -3950215.778 10 0 61017 21600.00000 0 21872578.227 13142083.999 -754986.362 10 0 61017 22500.00000 0 21859429.147 12955605.263 2454876.518 10 0 61017 23400.00000 0 21480441.325 12599219.791 5617162.102 10 0 61017 24300.00000 0 20722577.936 12127256.507 8670582.767 10 0 61017 25200.00000 0 19585822.656 11596639.763 11555955.576 10 0 61017 26100.00000 0 18083353.188 11064307.467 14217343.278 10 0 61017 27000.00000 0 16241178.560 10584641.554 16603133.109 10 0 61017 27900.00000 0 14097254.324 10207018.781 18667033.017 10 0 61017 28800.00000 0 11700111.363 9973584.864 20368966.413 10 0 61017 29700.00000 0 9107054.048 9917345.556 21675848.619 10 0 61017 30600.00000 0 6382001.292 10060655.202 22562230.268 10 0 61017 31500.00000 0 3593058.770 10414166.785 23010795.339 10 0 61017 32400.00000 0 809921.791 10976288.373 23012704.130 10 0 61017 33300.00000 0 -1898784.642 11733169.892 22567774.184 10 0 61017 34200.00000 0 -4468119.164 12659222.089 21684495.033 10 0 61017 35100.00000 0 -6839283.025 13718147.327 20379875.655 10 0 61017 36000.00000 0 -8961823.086 14864440.350 18679126.500 10 0 61017 36900.00000 0 -10795487.401 16045297.215 16615181.174 10 0 61017 37800.00000 0 -12311656.191 17202853.118 14228065.907 10 0 61017 38700.00000 0 -13494288.467 18276655.540 11564128.100 10 0 61017 39600.00000 0 -14340344.699 19206268.639 8675138.241 10 0 61017 40500.00000 0 -14859667.946 19933898.751 5617282.326 10 0 61017 41400.00000 0 -15074328.745 20406929.438 2450064.408 10 0 61017 42300.00000 0 -15017461.923 20580257.893 -764858.829 10 0 61017 43200.00000 0 -14731645.277 20418332.693 -3964887.947 10 0 61017 44100.00000 0 -14266889.705 19896805.383 -7087710.436 10 0 61017 45000.00000 0 -13678327.133 19003724.842 -10072524.903 10 0 61017 45900.00000 0 -13023695.494 17740222.865 -12861234.716 10 0 61017 46800.00000 0 -12360728.597 16120661.226 -15399586.719 10 0 61017 47700.00000 0 -11744562.635 14172233.496 -17638231.981 10 0 61017 48600.00000 0 -11225269.999 11934038.123 -19533687.434 10 0 61017 49500.00000 0 -10845625.311 9455661.631 -21049179.621 10 0 61017 50400.00000 0 -10639198.304 6795331.450 -22155354.371 10 0 61017 51300.00000 0 -10628853.859 4017715.702 -22830839.256 10 0 61017 52200.00000 0 -10825722.042 1191461.813 -23062648.749 10 0 61017 53100.00000 0 -11228680.797 -1613423.642 -22846425.193 10 0 61017 54000.00000 0 -11824372.283 -4328245.240 -22186511.951 10 0 61017 54900.00000 0 -12587751.340 -6888228.938 -21095858.221 10 0 61017 55800.00000 0 -13483142.304 -9234964.743 -19595758.184 10 0 61017 56700.00000 0 -14465759.192 -11318581.752 -17715430.097 10 0 61017 57600.00000 0 -15483625.020 -13099566.715 -15491443.849 10 0 61017 58500.00000 0 -16479809.469 -14550152.232 -12967008.249 10 0 61017 59400.00000 0 -17394890.908 -15655218.619 -10191131.799 10 0 61017 60300.00000 0 -18169539.487 -16412673.666 -7217673.089 10 0 61017 61200.00000 0 -18747113.009 -16833296.151 -4104298.965 10 0 61017 62100.00000 0 -19076156.696 -16940051.180 -911370.398 10 0 61017 63000.00000 0 -19112702.046 -16766907.370 2299222.694 10 0 61017 63900.00000 0 -18822268.218 -16357206.459 5465255.368 10 0 61017 64800.00000 0 -18181481.805 -15761654.515 8525367.529 10 0 61017 65700.00000 0 -17179246.678 -15036019.553 11420246.897 10 0 61017 66600.00000 0 -15817414.274 -14238632.477 14093772.481 10 0 61017 67500.00000 0 -14110925.386 -13427796.351 16494096.922 10 0 61017 68400.00000 0 -12087416.405 -12659212.709 18574647.184 10 0 61017 69300.00000 0 -9786305.130 -11983532.832 20295024.687 10 0 61017 70200.00000 0 -7257392.711 -11444136.640 21621787.889 10 0 61017 71100.00000 0 -4559038.270 -11075232.446 22529102.507 10 0 61017 72000.00000 0 -1755980.466 -10900357.419 22999246.931 10 0 61017 72900.00000 0 1083105.152 -10931342.118 23022962.979 10 0 61017 73800.00000 0 3888213.081 -11167783.144 22599644.875 10 0 61017 74700.00000 0 6590672.110 -11597046.944 21737362.195 10 0 61017 75600.00000 0 9125757.259 -12194805.637 20452715.463 10 0 61017 76500.00000 0 11435141.583 -12926083.459 18770526.162 10 0 61017 77400.00000 0 13469086.200 -13746770.919 16723366.036 10 0 61017 78300.00000 0 15188277.473 -14605543.800 14350933.694 10 0 61017 79200.00000 0 16565234.608 -15446106.792 11699289.641 10 0 61017 80100.00000 0 17585228.694 -16209667.311 8819963.914 10 0 61017 81000.00000 0 18246674.571 -16837534.854 5768953.301 10 0 61017 81900.00000 0 18560979.185 -17273735.420 2605627.710 10 0 61017 82800.00000 0 18551853.063 -17467529.391 -608432.547 10 0 61017 83700.00000 0 18254114.564 -17375725.082 -3810645.077 10 0 61017 84600.00000 0 17712038.219 -16964688.648 -6938654.726 10 0 61017 85500.00000 0 16977318.083 -16211963.864 -9931558.635 10 0 61018 0.00000 0 16106733.594 -15107432.124 -12731101.691 10 0 61018 900.00000 0 15159617.458 -13653961.907 -15282819.436 10 0 61018 1800.00000 0 14195235.089 -11867521.033 -17537101.553 10 0 61018 2700.00000 0 13270185.836 -9776744.496 -19450159.774 10 0 61018 3600.00000 0 12435937.565 -7421977.109 -20984877.413 10 0 61018 4500.00000 0 11736598.525 -4853830.482 -22111525.828 10 0 61018 5400.00000 0 11207020.367 -2131314.766 -22808334.220 10 0 61018 6300.00000 0 10871311.701 680376.870 -23061902.560 10 0 61018 7200.00000 0 10741823.911 3512338.793 -22867450.623 10 0 61018 8100.00000 0 10818650.815 6294576.001 -22228899.298 10 0 61018 9000.00000 0 11089662.022 8958671.290 -21158783.573 10 0 61018 9900.00000 0 11531067.463 11440386.476 -19677999.647 10 0 61018 10800.00000 0 12108488.314 13682090.741 -17815391.675 10 0 61018 11700.00000 0 12778488.511 15634916.543 -15607186.502 10 0 61018 12600.00000 0 13490501.870 17260554.922 -13096287.519 10 0 61018 13500.00000 0 14189073.438 18532617.133 -10331441.300 10 0 61018 14400.00000 0 14816320.675 19437507.501 -7366293.005 10 0 61018 15300.00000 0 15314510.936 19974772.663 -4258348.648 10 0 61018 16200.00000 0 15628646.887 20156914.069 -1067864.057 10 0 61018 17100.00000 0 15708951.210 20008672.874 2143318.288 10 0 61018 18000.00000 0 15513146.066 19565818.171 5312962.248 10 0 61018 18900.00000 0 15008431.396 18873490.146 8379638.114 10 0 61018 19800.00000 0 14173078.605 17984168.115 11283906.904 10 0 61018 20700.00000 0 12997572.158 16955348.922 13969466.289 10 0 61018 21600.00000 0 11485250.392 15847033.115 16384236.412 10 0 61018 22500.00000 0 9652417.578 14719124.163 18481365.055 10 0 61018 23400.00000 0 7527921.140 13628849.559 20220133.119 10 0 61018 24300.00000 0 5152210.080 12628311.584 21566743.355 10 0 61018 25200.00000 0 2575912.020 11762270.131 22494977.387 10 0 61018 26100.00000 0 -142013.725 11066250.373 22986708.459 10 0 61018 27000.00000 0 -2936472.132 10565054.545 23032259.958 10 0 61018 27900.00000 0 -5738688.004 10271740.468 22630602.413 10 0 61018 28800.00000 0 -8478820.567 10187110.073 21789384.596 10 0 61018 29700.00000 0 -11088629.748 10299729.998 20524797.267 10 0 61018 30600.00000 0 -13504084.221 10586484.141 18861271.169 10 0 61018 31500.00000 0 -15667803.226 11013635.719 16831013.989 10 0 61018 32400.00000 0 -17531230.631 11538354.833 14473394.171 10 0 61018 33300.00000 0 -19056450.472 12110647.644 11834182.529 10 0 61018 34200.00000 0 -20217567.798 12675605.973 8964665.689 10 0 61018 35100.00000 0 -21001596.726 13175882.111 5920648.229 10 0 61018 36000.00000 0 -21408818.222 13554283.616 2761362.932 10 0 61018 36900.00000 0 -21452592.540 13756377.334 -451689.157 10 0 61018 37800.00000 0 -21158634.482 13732991.122 -3655945.461 10 0 61018 38700.00000 0 -20563782.625 13442505.895 -6789010.817 10 0 61018 39600.00000 0 -19714315.301 12852839.411 -9789883.371 10 0 61018 40500.00000 0 -18663885.577 11943036.396 -12600152.289 10 0 61018 41400.00000 0 -17471163.686 10704396.496 -15165142.839 10 0 61018 42300.00000 0 -16197287.698 9141091.378 -17434985.605 10 0 61018 43200.00000 0 -14903231.098 7270244.201 -19365588.539 10 0 61018 44100.00000 0 -13647199.094 5121467.577 -20919492.785 10 0 61018 45000.00000 0 -12482163.781 2735879.105 -22066595.898 10 0 61018 45900.00000 0 -11453641.891 164635.562 -22784728.976 10 0 61018 46800.00000 0 -10597808.076 -2532953.139 -23060077.373 10 0 61018 47700.00000 0 -9940022.168 -5291651.646 -22887437.780 10 0 61018 48600.00000 0 -9493831.026 -8042776.029 -22270307.746 10 0 61018 49500.00000 0 -9260485.466 -10716817.203 -21220806.822 10 0 61018 50400.00000 0 -9228991.059 -13246102.496 -19759431.682 10 0 61018 51300.00000 0 -9376689.213 -15567385.648 -17914650.550 10 0 61018 52200.00000 0 -9670342.849 -17624258.705 -15722345.167 10 0 61018 53100.00000 0 -10067679.989 -19369286.735 -13225111.285 10 0 61018 54000.00000 0 -10519329.564 -20765777.923 -10471431.222 10 0 61018 54900.00000 0 -10971067.489 -21789116.720 -7514734.347 10 0 61018 55800.00000 0 -11366278.168 -22427605.812 -4412363.477 10 0 61018 56700.00000 0 -11648527.678 -22682783.068 -1224466.962 10 0 61018 57600.00000 0 -11764140.211 -22569201.355 1987162.450 10 0 61018 58500.00000 0 -11664669.307 -22113681.375 5160279.694 10 0 61018 59400.00000 0 -11309159.680 -21354069.532 8233387.694 10 0 61018 60300.00000 0 -10666104.302 -20337553.327 11146922.987 10 0 61018 61200.00000 0 -9715013.938 -19118605.083 13844404.065 10 0 61018 62100.00000 0 -8447532.558 -17756640.151 16273520.631 10 0 61018 63000.00000 0 -6868050.756 -16313487.481 18387143.173 10 0 61018 63900.00000 0 -4993790.205 -14850778.132 20144233.742 10 0 61018 64800.00000 0 -2854353.983 -13427360.593 21510640.749 10 0 61018 65700.00000 0 -490759.692 -12096850.626 22459762.748 10 0 61018 66600.00000 0 2046006.275 -10905417.715 22973068.510 10 0 61018 67500.00000 0 4696855.152 -9889900.460 23040463.281 10 0 61018 68400.00000 0 7396807.241 -9076329.612 22660493.819 10 0 61018 69300.00000 0 10077458.126 -8478920.672 21840387.677 10 0 61018 70200.00000 0 12669598.640 -8099578.483 20595925.106 10 0 61018 71100.00000 0 15105880.691 -7927934.955 18951145.054 10 0 61018 72000.00000 0 17323418.697 -7941918.833 16937889.810 10 0 61018 72900.00000 0 19266218.484 -8108833.956 14595196.004 10 0 61018 73800.00000 0 20887332.248 -8386900.915 11968542.801 10 0 61018 74700.00000 0 22150649.145 -8727197.197 9108971.148 10 0 61018 75600.00000 0 23032246.048 -9075913.651 6072090.839 10 0 61018 76500.00000 0 23521241.377 -9376831.296 2916994.684 10 0 61018 77400.00000 0 23620115.714 -9573912.720 -294898.586 10 0 61018 78300.00000 0 23344485.669 -9613897.098 -3501049.373 10 0 61018 79200.00000 0 22722340.706 -9448787.408 -6639025.659 10 0 61018 80100.00000 0 21792775.651 -9038122.954 -9647729.634 10 0 61018 81000.00000 0 20604273.201 -8350939.377 -12468597.334 10 0 61018 81900.00000 0 19212609.918 -7367331.821 -15046746.802 10 0 61018 82800.00000 0 17678475.165 -6079553.984 -17332051.477 10 0 61018 83700.00000 0 16064904.412 -4492605.717 -19280117.404 10 0 61018 84600.00000 0 14434635.842 -2624283.703 -20853145.076 10 0 61018 85500.00000 0 12847502.043 -504692.668 -22020659.388 10 0 61019 0.00000 0 11357966.598 1824762.480 -22760094.068 10 0 61019 900.00000 0 10012907.869 4312862.879 -23057220.374 10 0 61019 1800.00000 0 8849744.105 6900475.190 -22906411.839 10 0 61019 2700.00000 0 7894974.572 9522789.524 -22310742.284 10 0 61019 3600.00000 0 7163198.340 12111799.871 -21281915.061 10 0 61019 4500.00000 0 6656649.312 14598925.517 -19840026.187 10 0 61019 5400.00000 0 6365265.345 16917664.927 -18013166.472 10 0 61019 6300.00000 0 6267286.902 19006172.572 -15836870.733 10 0 61019 7200.00000 0 6330358.582 20809652.494 -13353424.940 10 0 61019 8100.00000 0 6513086.017 22282470.071 -10611044.710 10 0 61019 9000.00000 0 6766981.727 23389895.183 -7662940.889 10 0 61019 9900.00000 0 7038717.387 24109405.200 -4566290.150 10 0 61019 10800.00000 0 7272587.253 24431494.504 -1381130.231 10 0 61019 11700.00000 0 7413078.747 24359957.687 1830799.072 10 0 61019 12600.00000 0 7407441.769 23911635.369 5007246.984 10 0 61019 13500.00000 0 7208148.375 23115633.887 8086652.181 10 0 61019 14400.00000 0 6775139.054 22012051.887 11009329.658 10 0 61019 15300.00000 0 6077760.724 20650267.256 13718621.411 10 0 61019 16200.00000 0 5096314.391 19086856.022 16161989.094 10 0 61019 17100.00000 0 3823146.612 17383229.983 18292027.968 10 0 61019 18000.00000 0 2263237.820 15603091.435 20067382.944 10 0 61019 18900.00000 0 434261.408 13809810.806 21453549.443 10 0 61019 19800.00000 0 -1633890.682 12063836.151 22423543.915 10 0 61019 20700.00000 0 -3900097.999 10420242.090 22958431.204 10 0 61019 21600.00000 0 -6313478.038 8926520.042 23047698.515 10 0 61019 22500.00000 0 -8815270.108 7620701.591 22689468.459 10 0 61019 23400.00000 0 -11341060.072 6529893.233 21890546.479 10 0 61019 24300.00000 0 -13823255.034 5669283.619 20666300.910 10 0 61019 25200.00000 0 -16193706.270 5041664.983 19040376.982 10 0 61019 26100.00000 0 -18386371.994 4637488.945 17044249.174 10 0 61019 27000.00000 0 -20339909.348 4435454.571 14716619.490 10 0 61019 27900.00000 0 -22000087.407 4403604.042 12102672.306 10 0 61019 28800.00000 0 -23321919.933 4500879.778 9253199.552 10 0 61019 29700.00000 0 -24271427.936 4679077.000 6223612.807 10 0 61019 30600.00000 0 -24826957.426 4885108.662 3072861.507 10 0 61019 31500.00000 0 -24979996.309 5063485.989 -137721.228 10 0 61019 32400.00000 0 -24735455.592 5158908.398 -3345621.893 10 0 61019 33300.00000 0 -24111402.862 5118851.614 -6488374.529 10 0 61019 34200.00000 0 -23138259.398 4896042.726 -9504788.038 10 0 61019 35100.00000 0 -21857495.281 4450715.747 -12336147.729 10 0 61019 36000.00000 0 -20319878.213 3752550.662 -14927366.528 10 0 61019 36900.00000 0 -18583350.831 2782212.640 -17228062.500 10 0 61019 37800.00000 0 -16710626.841 1532425.357 -19193541.143 10 0 61019 38700.00000 0 -14766607.924 8532.333 -20785663.216 10 0 61019 39600.00000 0 -12815730.584 -1771477.855 -21973581.402 10 0 61019 40500.00000 0 -10919354.487 -3777483.905 -22734332.098 10 0 61019 41400.00000 0 -9133301.526 -5968260.424 -23053271.677 10 0 61019 42300.00000 0 -7505648.017 -8292979.935 -22924349.715 10 0 61019 43200.00000 0 -6074861.247 -10693125.735 -22350214.946 10 0 61019 44100.00000 0 -4868356.799 -13104736.025 -21342152.824 10 0 61019 45000.00000 0 -3901535.231 -15460886.181 -19919856.726 10 0 61019 45900.00000 0 -3177336.445 -17694306.263 -18111037.849 10 0 61019 46800.00000 0 -2686328.473 -19740025.488 -15950881.731 10 0 61019 47700.00000 0 -2407325.080 -21537934.255 -13481362.110 10 0 61019 48600.00000 0 -2308504.677 -23035157.877 -10750425.417 10 0 61019 49500.00000 0 -2348982.157 -24188144.014 -7811061.519 10 0 61019 50400.00000 0 -2480766.544 -24964377.556 -4720278.536 10 0 61019 51300.00000 0 -2651021.316 -25343652.275 -1538001.282 10 0 61019 52200.00000 0 -2804531.717 -25318846.825 1674085.622 10 0 61019 53100.00000 0 -2886274.820 -24896173.274 4853727.839 10 0 61019 54000.00000 0 -2843983.836 -24094888.198 7939301.857 10 0 61019 54900.00000 0 -2630598.464 -22946478.667 10871003.123 10 0 61019 55800.00000 0 -2206497.859 -21493357.188 13591999.044 10 0 61019 56700.00000 0 -1541421.822 -19787119.996 16049525.012 10 0 61019 57600.00000 0 -615998.826 -17886441.077 18195902.681 10 0 61019 58500.00000 0 577184.208 -15854689.360 19989461.228 10 0 61019 59400.00000 0 2033016.502 -13757367.840 21395344.218 10 0 61019 60300.00000 0 3733827.584 -11659480.673 22386186.824 10 0 61019 61200.00000 0 5649884.361 -9622937.304 22942650.446 10 0 61019 62100.00000 0 7740402.312 -7704101.077 23053804.395 10 0 61019 63000.00000 0 9955030.690 -5951583.902 22717346.937 10 0 61019 63900.00000 0 12235751.808 -4404378.485 21939660.893 10 0 61019 64800.00000 0 14519117.015 -3090405.744 20735701.871 10 0 61019 65700.00000 0 16738727.680 -2025537.923 19128720.297 10 0 61019 66600.00000 0 18827858.732 -1213138.246 17149821.500 10 0 61019 67500.00000 0 20722115.830 -644136.395 14837371.254 10 0 61019 68400.00000 0 22362015.275 -297636.608 12236257.297 10 0 61019 69300.00000 0 23695378.332 -142032.700 9397020.421 10 0 61019 70200.00000 0 24679438.983 -136582.659 6374871.622 10 0 61019 71100.00000 0 25282575.818 -233375.761 3228614.351 10 0 61019 72000.00000 0 25485594.322 -379608.152 19493.321 10 0 61019 72900.00000 0 25282504.830 -520069.387 -3190006.975 10 0 61019 73800.00000 0 24680762.795 -599733.219 -6337389.565 10 0 61019 74700.00000 0 23700960.965 -566341.275 -9361372.912 10 0 61019 75600.00000 0 22375986.532 -372868.530 -12203094.264 10 0 61019 76500.00000 0 20749679.157 20235.360 -14807263.843 10 0 61019 77400.00000 0 18875047.039 643125.118 -17123246.446 10 0 61019 78300.00000 0 16812116.866 1515041.598 -19106048.835 10 0 61019 79200.00000 0 14625508.738 2643261.176 -20717193.540 10 0 61019 80100.00000 0 12381838.498 4022557.633 -21925462.243 10 0 61019 81000.00000 0 10147056.636 5635199.503 -22707494.907 10 0 61019 81900.00000 0 7983835.083 7451483.177 -23048233.804 10 0 61019 82800.00000 0 5949110.657 9430779.503 -22941204.821 10 0 61019 83700.00000 0 4091886.812 11523050.134 -22388631.628 10 0 61019 84600.00000 0 2451384.050 13670770.410 -21401381.444 10 0 61019 85500.00000 0 1055614.516 15811178.660 -19998744.298 10 0 61020 0.00000 0 -79561.608 17878758.270 -18208050.858 10 0 61020 900.00000 0 -950861.115 19807850.580 -16064135.579 10 0 61020 1800.00000 0 -1567467.023 21535287.418 -13608658.255 10 0 61020 2700.00000 0 -1950390.611 23002937.855 -10889293.915 10 0 61020 3600.00000 0 -2131333.149 24160060.801 -7958808.911 10 0 61020 4500.00000 0 -2151097.134 24965366.982 -4874039.990 10 0 61020 5400.00000 0 -2057614.799 25388704.661 -1694796.004 10 0 61020 6300.00000 0 -1903677.615 25412299.147 1517296.792 10 0 61020 7200.00000 0 -1744462.933 25031494.676 4699983.743 10 0 61020 8100.00000 0 -1634962.245 24254967.894 7791582.390 10 0 61020 9000.00000 0 -1627419.642 23104404.077 10732171.747 10 0 61020 9900.00000 0 -1768888.541 21613649.488 13464747.584 10 0 61020 10800.00000 0 -2099009.794 19827374.967 15936321.742 10 0 61020 11700.00000 0 -2648105.062 17799306.010 18098944.702 10 0 61020 12600.00000 0 -3435666.220 15590092.535 19910632.023 10 0 61020 13500.00000 0 -4469305.163 13264906.288 21336177.185 10 0 61020 14400.00000 0 -5744209.247 10890865.095 22347835.471 10 0 61020 15300.00000 0 -7243126.757 8534390.259 22925865.812 10 0 61020 16200.00000 0 -8936884.745 6258606.210 23058920.126 10 0 61020 17100.00000 0 -10785419.558 4120889.777 22744272.336 10 0 61020 18000.00000 0 -12739278.951 2170670.501 21987882.093 10 0 61020 18900.00000 0 -14741534.901 447573.055 20804291.163 10 0 61020 19800.00000 0 -16730028.887 -1020021.076 19216353.478 10 0 61020 20700.00000 0 -18639857.027 -2215932.798 17254802.982 10 0 61020 21600.00000 0 -20405991.984 -3136625.509 14957666.489 10 0 61020 22500.00000 0 -21965932.217 -3791107.746 12369531.958 10 0 61020 23400.00000 0 -23262267.351 -4200302.661 9540685.607 10 0 61020 24300.00000 0 -24245051.453 -4395911.211 6526134.214 10 0 61020 25200.00000 0 -24873883.597 -4418817.534 3384531.560 10 0 61020 26100.00000 0 -25119607.140 -4317104.729 177030.294 10 0 61020 27000.00000 0 -24965555.065 -4143766.037 -3033917.626 10 0 61020 27900.00000 0 -24408288.038 -3954209.701 -6185787.551 10 0 61020 28800.00000 0 -23457793.344 -3803664.707 -9217210.608 10 0 61020 29700.00000 0 -22137136.010 -3744598.910 -12069178.807 10 0 61020 30600.00000 0 -20481576.788 -3824260.482 -14686202.169 10 0 61020 31500.00000 0 -18537194.471 -4082448.122 -17017394.353 10 0 61020 32400.00000 0 -16359070.951 -4549605.507 -19017465.072 10 0 61020 33300.00000 0 -14009115.886 -5245321.331 -20647599.799 10 0 61020 34200.00000 0 -11553622.739 -6177298.754 -21876209.850 10 0 61020 35100.00000 0 -9060658.866 -7340837.946 -22679538.786 10 0 61020 36000.00000 0 -6597398.821 -8718853.578 -23042114.246 10 0 61020 36900.00000 0 -4227511.889 -10282426.449 -22957037.355 10 0 61020 37800.00000 0 -2008712.037 -11991866.024 -22426105.174 10 0 61020 38700.00000 0 9428.792 -13798239.347 -21459764.758 10 0 61020 39600.00000 0 1787314.470 -15645302.360 -20076900.550 10 0 61020 40500.00000 0 3296730.992 -17471753.051 -18304459.862 10 0 61020 41400.00000 0 4521768.708 -19213712.541 -16176924.072 10 0 61020 42300.00000 0 5459224.076 -20807330.844 -13735636.003 10 0 61020 43200.00000 0 6118466.206 -22191408.882 -11027996.491 10 0 61020 44100.00000 0 6520775.703 -23309927.702 -8106545.569 10 0 61020 45000.00000 0 6698185.134 -24114379.637 -5027945.848 10 0 61020 45900.00000 0 6691871.195 -24565804.390 -1851887.521 10 0 61020 46800.00000 0 6550167.157 -24636445.227 1360064.117 10 0 61020 47700.00000 0 6326279.968 -24310956.197 4545656.557 10 0 61020 48600.00000 0 6075808.580 -23587109.958 7643150.693 10 0 61020 49500.00000 0 5854168.294 -22475976.490 10592511.248 10 0 61020 50400.00000 0 5714029.769 -21001564.917 13336564.274 10 0 61020 51300.00000 0 5702880.626 -19199942.900 15822099.759 10 0 61020 52200.00000 0 5860812.506 -17117869.695 18000898.433 10 0 61020 53100.00000 0 6218626.932 -14810998.981 19830663.359 10 0 61020 54000.00000 0 6796340.186 -12341725.391 21275838.722 10 0 61020 54900.00000 0 7602150.772 -9776763.239 22308300.351 10 0 61020 55800.00000 0 8631913.951 -7184557.082 22907904.781 10 0 61020 56700.00000 0 9869146.774 -4632630.667 23062886.264 10 0 61020 57600.00000 0 11285565.076 -2184983.415 22770093.783 10 0 61020 58500.00000 0 12842131.741 100358.118 22035062.925 10 0 61020 59400.00000 0 14490574.121 2173532.654 20871920.458 10 0 61020 60300.00000 0 16175308.813 3994689.704 19303122.455 10 0 61020 61200.00000 0 17835694.501 5535411.500 17359029.902 10 0 61020 62100.00000 0 19408519.513 6779652.182 15077328.907 10 0 61020 63000.00000 0 20830620.266 7724155.066 12502305.731 10 0 61020 63900.00000 0 22041520.678 8378330.673 9683989.926 10 0 61020 64800.00000 0 22985981.183 8763600.907 6677181.808 10 0 61020 65700.00000 0 23616349.240 8912237.523 3540383.079 10 0 61020 66600.00000 0 23894611.237 8865744.565 334651.813 10 0 61020 67500.00000 0 23794058.075 8672854.180 -2877595.149 10 0 61020 68400.00000 0 23300493.002 8387221.811 -6033808.055 10 0 61020 69300.00000 0 22412929.755 8064919.810 -9072533.174 10 0 61020 70200.00000 0 21143750.825 7761837.167 -11934619.598 10 0 61020 71100.00000 0 19518318.775 7531097.006 -14564379.241 10 0 61020 72000.00000 0 17574056.884 7420602.568 -16910676.465 10 0 61020 72900.00000 0 15359038.004 7470816.656 -18927925.523 10 0 61020 73800.00000 0 12930141.177 7712869.237 -20576976.196 10 0 61020 74700.00000 0 10350853.756 8167073.579 -21825870.572 10 0 61020 75600.00000 0 7688811.276 8841913.698 -22650456.780 10 0 61020 76500.00000 0 5013177.983 9733545.651 -23034848.588 10 0 61020 77400.00000 0 2391977.088 10825833.408 -22971722.910 10 0 61020 78300.00000 0 -110518.573 12090917.443 -22462450.476 10 0 61020 79200.00000 0 -2436227.837 13490291.895 -21517058.139 10 0 61020 80100.00000 0 -4535434.194 14976344.853 -20154024.352 10 0 61020 81000.00000 0 -6368601.680 16494297.172 -18399912.453 10 0 61020 81900.00000 0 -7907760.016 17984458.652 -16288849.230 10 0 61020 82800.00000 0 -9137403.246 19384707.291 -13861859.098 10 0 61020 83700.00000 0 -10054866.483 20633088.124 -11166066.773 10 0 61020 84600.00000 0 -10670166.958 21670423.180 -8253783.728 10 0 61020 85500.00000 0 -11005317.843 22442823.608 -5181495.935 99